FW5295 Weather Reports


time (UTC)temp
C
wind
direction
speed
KPH
gust
KPH
rain 1hr
cm
rain 24hr
cm
rain mn
cm
humidity
%
barometer
mb
20260906124445 19 73 4.8 6.4 0.00 0.00 0.00 99 1018.8
20260906123946 19 75 4.8 4.8 0.00 0.00 0.00 99 1018.5
20260906123459 19 96 3.2 4.8 0.00 0.00 0.00 99 1018.5
20260906122945 19 81 0.0 6.4 0.00 0.00 0.00 99 1018.5
20260906122445 19 64 1.6 6.4 0.00 0.00 0.00 99 1018.5
20260906121956 19 103 1.6 4.8 0.00 0.00 0.00 99 1018.5
20260906121441 18 103 3.2 3.2 0.00 0.00 0.00 99 1018.5
20260906120941 18 352 0.0 3.2 0.00 0.00 0.00 99 1018.5
20260906120440 18 84 0.0 4.8 0.00 0.00 0.00 99 1018.5
20260906115941 18 77 3.2 4.8 0.00 0.00 0.00 99 1018.2
20260906115441 18 76 0.0 3.2 0.00 0.00 0.00 99 1018.2
20260906114940 18 50 0.0 4.8 0.00 0.00 0.00 99 1018.2
20260906114438 18 94 3.2 4.8 0.00 0.00 0.00 99 1017.8
20260906113938 18 85 0.0 4.8 0.00 0.00 0.00 99 1017.8
20260906113437 18 74 1.6 4.8 0.00 0.00 0.00 99 1017.8
20260906112938 18 84 3.2 6.4 0.00 0.00 0.00 99 1017.5
20260906112436 18 72 1.6 6.4 0.00 0.00 0.00 99 1017.8
20260906111936 19 110 0.0 8.0 0.00 0.00 0.00 99 1017.5
20260906111436 19 86 8.0 8.0 0.00 0.00 0.00 99 1017.5
20260906110936 19 91 3.2 4.8 0.00 0.00 0.00 99 1017.5
20260906110447 19 95 3.2 6.4 0.00 0.00 0.00 99 1017.5
20260906105934 19 49 3.2 6.4 0.00 0.00 0.00 99 1017.5
20260906105434 19 93 4.8 6.4 0.00 0.00 0.00 99 1017.5
20260906105154 19 81 3.2 6.4 0.00 0.00 0.00 99 1017.5
20260906104433 19 96 3.2 8.0 0.00 0.00 0.00 99 1017.1
20260906103934 19 91 3.2 8.0 0.00 0.00 0.00 99 1017.5
20260906103433 19 138 1.6 4.8 0.00 0.00 0.00 99 1017.5
20260906102931 19 348 1.6 4.8 0.00 0.00 0.00 99 1017.1
20260906102430 18 81 3.2 4.8 0.00 0.00 0.00 99 1017.1
20260906101932 18 10 1.6 4.8 0.00 0.00 0.00 99 1017.1
20260906101429 18 83 1.6 4.8 0.00 0.00 0.00 99 1017.1
20260906100930 18 2 1.6 4.8 0.00 0.00 0.00 98 1017.1
20260906100429 18 37 0.0 3.2 0.00 0.00 0.00 98 1017.1
20260906095928 18 31 1.6 4.8 0.00 0.00 0.00 98 1017.1
20260906095428 18 73 3.2 4.8 0.00 0.00 0.00 98 1017.1
20260906095146 18 51 1.6 4.8 0.00 0.00 0.00 98 1017.1
20260906094652 18 87 1.6 3.2 0.00 0.00 0.00 98 1017.1
20260906094146 18 10 0.0 3.2 0.00 0.00 0.00 98 1017.1
20260906093425 18 55 0.0 1.6 0.00 0.00 0.00 98 1017.1
20260906092925 18 75 0.0 6.4 0.00 0.00 0.00 98 1016.7
20260906092425 18 60 0.0 6.4 0.00 0.00 0.00 98 1017.1
20260906091926 18 246 0.0 1.6 0.00 0.00 0.00 98 1016.7
20260906091423 18 4 0.0 1.6 0.00 0.00 0.00 98 1017.1
20260906090922 18 124 0.0 1.6 0.00 0.00 0.00 98 1017.1
20260906090424 18 224 0.0 3.2 0.00 0.00 0.00 98 1017.1
20260906085923 18 203 0.0 3.2 0.00 0.00 0.00 98 1017.1
20260906085421 18 329 0.0 3.2 0.00 0.00 0.00 98 1016.7
20260906084922 18 37 0.0 0.0 0.00 0.00 0.00 97 1017.1
20260906084422 18 217 0.0 0.0 0.00 0.00 0.00 97 1016.7
20260906083923 18 322 0.0 0.0 0.00 0.00 0.00 97 1016.7
20260906083421 18 322 0.0 1.6 0.00 0.00 0.00 97 1016.7
20260906082920 18 142 0.0 1.6 0.00 0.00 0.00 97 1016.7
20260906082419 18 6 0.0 0.0 0.00 0.00 0.00 97 1016.7
20260906081933 18 37 0.0 0.0 0.00 0.00 0.00 97 1017.1
20260906081417 18 309 0.0 0.0 0.00 0.00 0.00 97 1017.1
20260906080916 18 231 0.0 0.0 0.00 0.00 0.00 97 1017.1
20260906080416 18 129 0.0 0.0 0.00 0.00 0.00 97 1017.1
20260906075916 18 129 0.0 0.0 0.00 0.00 0.00 97 1016.7
20260906075415 19 129 0.0 0.0 0.00 0.00 0.00 97 1017.1
20260906074915 19 50 0.0 0.0 0.00 0.00 0.00 97 1017.1
20260906074414 19 50 0.0 0.0 0.00 0.00 0.00 97 1017.1
20260906073913 19 129 0.0 1.6 0.00 0.00 0.00 97 1016.7
20260906073413 19 129 0.0 1.6 0.00 0.00 0.00 96 1017.1
20260906072913 19 50 0.0 0.0 0.00 0.00 0.00 96 1017.1
20260906072411 19 142 0.0 1.6 0.00 0.00 0.00 96 1017.1
20260906071913 19 142 0.0 1.6 0.00 0.00 0.00 96 1017.1
20260906071411 19 127 0.0 0.0 0.00 0.00 0.00 96 1017.1
20260906070912 19 142 0.0 1.6 0.00 0.00 0.00 95 1017.1
20260906070411 20 129 0.0 1.6 0.00 0.00 0.00 95 1017.1
20260906065909 20 135 0.0 1.6 0.00 0.00 0.00 95 1017.1
20260906065638 20 142 0.0 1.6 0.00 0.00 0.00 95 1017.1
20260906064911 20 142 0.0 1.6 0.00 0.00 0.00 95 1017.1
20260906064407 20 142 0.0 1.6 0.00 0.00 0.00 95 1017.1
20260906063908 20 228 0.0 3.2 0.00 0.00 0.00 95 1017.1
20260906063848 20 110 0.0 3.2 0.00 0.00 0.00 95 1017.1
20260906062906 20 53 0.0 3.2 0.00 0.00 0.00 94 1017.1
20260906062408 20 60 0.0 4.8 0.00 0.00 0.00 94 1017.1
20260906061905 20 33 1.6 4.8 0.00 0.00 0.00 94 1017.1
20260906061404 20 44 3.2 4.8 0.00 0.00 0.00 94 1017.1
20260906060905 20 15 1.6 6.4 0.00 0.00 0.00 94 1017.1
20260906060404 20 77 1.6 6.4 0.00 0.00 0.00 94 1017.1
20260906055905 20 89 0.0 6.4 0.00 0.00 0.00 93 1017.1
20260906055404 20 63 1.6 6.4 0.00 0.00 0.00 93 1017.1
20260906054903 20 1 3.2 6.4 0.00 0.00 0.00 93 1017.1
20260906054402 20 89 3.2 4.8 0.00 0.00 0.00 93 1017.1
20260906053902 20 323 1.6 4.8 0.00 0.00 0.00 93 1017.1
20260906053402 20 79 0.0 6.4 0.00 0.00 0.00 93 1017.1
20260906052900 20 67 3.2 6.4 0.00 0.00 0.00 93 1017.1
20260906052402 20 26 0.0 6.4 0.00 0.00 0.00 93 1017.1
20260906051900 20 13 0.0 4.8 0.00 0.00 0.00 93 1016.7
20260906051359 20 344 1.6 6.4 0.00 0.00 0.00 93 1017.1
20260906050858 20 5 0.0 6.4 0.00 0.00 0.00 93 1016.7
20260906050359 21 39 1.6 6.4 0.00 0.00 0.00 92 1016.7
20260906045858 21 72 4.8 6.4 0.00 0.00 0.00 92 1016.7
20260906045358 21 82 4.8 11.3 0.00 0.00 0.00 92 1016.7
20260906044858 21 68 3.2 11.3 0.00 0.00 0.00 92 1016.7
20260906044359 21 33 1.6 6.4 0.00 0.00 0.00 92 1016.4
20260906043857 21 124 1.6 14.5 0.00 0.00 0.00 92 1016.7
20260906043355 21 86 6.4 14.5 0.00 0.00 0.00 92 1016.7
20260906042855 21 86 4.8 9.7 0.00 0.00 0.00 92 1016.4
20260906042353 21 59 3.2 8.0 0.00 0.00 0.00 92 1016.4
20260906041854 21 50 3.2 6.4 0.00 0.00 0.00 91 1016.7
20260906041354 21 13 3.2 8.0 0.00 0.00 0.00 91 1016.4
20260906040855 21 100 4.8 8.0 0.00 0.00 0.00 91 1016.4
20260906040611 21 0 3.2 11.3 0.00 0.00 0.00 91 1016.0
20260906035852 21 66 6.4 11.3 0.00 0.00 0.00 91 1016.4
20260906035352 21 106 4.8 11.3 0.00 0.00 0.00 91 1016.0
20260906034850 21 77 6.4 9.7 0.00 0.00 0.00 91 1016.4
20260906034351 21 66 6.4 9.7 0.00 0.00 0.00 91 1016.0
20260906034059 21 80 4.8 8.0 0.00 0.00 0.00 90 1016.0
20260906033953 21 48 3.2 8.0 0.00 0.00 0.00 90 1016.0
20260906032849 21 78 6.4 8.0 0.00 0.00 0.00 90 1016.0
20260906032400 21 87 4.8 9.7 0.00 0.00 0.00 90 1016.0
20260906031847 21 70 4.8 9.7 0.00 0.00 0.00 90 1016.0
20260906031348 21 91 3.2 6.4 0.00 0.00 0.00 90 1016.0
20260906030847 21 89 3.2 8.0 0.00 0.00 0.00 90 1016.0
20260906030345 21 82 3.2 9.7 0.00 0.00 0.00 90 1015.7
20260906030111 21 89 6.4 9.7 0.00 0.00 0.00 90 1015.7
20260906025400 21 80 4.8 8.0 0.00 0.00 0.00 89 1015.4
20260906025109 21 82 4.8 8.0 0.00 0.00 0.00 89 1016.0
20260906024601 21 79 3.2 9.7 0.00 0.00 0.00 89 1015.7
20260906023845 21 92 6.4 9.7 0.00 0.00 0.00 89 1015.7
20260906023345 21 89 3.2 9.7 0.00 0.00 0.00 90 1015.7
20260906022841 21 59 3.2 9.7 0.00 0.00 0.00 90 1015.7
20260906022342 21 88 3.2 14.5 0.00 0.00 0.00 89 1015.7
20260906021840 21 78 11.3 14.5 0.00 0.00 0.00 89 1015.7
20260906021341 21 94 1.6 9.7 0.00 0.00 0.00 89 1015.7
20260906020840 21 69 4.8 16.1 0.00 0.00 0.00 89 1015.7
20260906020339 21 76 6.4 17.7 0.00 0.00 0.00 89 1015.7
20260906020101 21 81 4.8 17.7 0.00 0.00 0.00 88 1015.7
20260906015340 21 80 9.7 12.9 0.00 0.00 0.00 88 1015.7
20260906014841 21 25 4.8 12.9 0.00 0.00 0.00 88 1015.7
20260906014338 21 4 1.6 9.7 0.00 0.00 0.00 88 1015.7
20260906014055 21 84 4.8 9.7 0.00 0.00 0.00 89 1016.0
20260906013337 21 40 3.2 11.3 0.00 0.00 0.00 88 1015.7
20260906012836 21 93 3.2 11.3 0.00 0.00 0.00 88 1016.0
20260906012338 21 66 3.2 11.3 0.00 0.00 0.00 88 1016.0
20260906011835 21 106 6.4 9.7 0.00 0.00 0.00 88 1015.7
20260906011336 21 70 4.8 9.7 0.00 0.00 0.00 88 1016.0
20260906011106 21 68 3.2 11.3 0.00 0.00 0.00 89 1015.7
20260906010334 21 83 8.0 11.3 0.00 0.00 0.00 89 1015.7
20260906005833 21 79 4.8 9.7 0.00 0.00 0.00 89 1015.7
20260906005334 21 53 3.2 11.3 0.00 0.00 0.00 89 1015.7
20260906005055 21 118 4.8 11.3 0.00 0.00 0.00 89 1015.7
20260906004331 22 86 6.4 16.1 0.00 0.00 0.00 89 1015.7
20260906003832 22 47 4.8 16.1 0.00 0.00 0.00 88 1015.7
20260906003338 22 26 8.0 16.1 0.00 0.00 0.00 87 1015.7
20260906002831 22 75 4.8 14.5 0.00 0.00 0.00 87 1015.7
20260906002330 22 55 0.0 19.3 0.00 0.00 0.00 87 1015.4
20260906001829 22 13 4.8 19.3 0.00 0.00 0.00 86 1015.4
20260906001329 23 68 9.7 14.5 0.00 0.00 0.00 86 1015.4
20260906000828 23 86 9.7 12.9 0.00 0.00 0.00 85 1015.0
20260906000327 23 81 6.4 8.0 0.00 0.00 0.00 86 1015.4
20260905235827 23 126 0.0 9.7 0.00 0.00 0.00 85 1015.0
20260905235554 23 352 3.2 9.7 0.00 0.00 0.00 84 1015.0
20260905234825 23 352 3.2 11.3 0.00 0.00 0.00 83 1015.0
20260905234325 23 50 6.4 14.5 0.00 0.00 0.00 83 1014.7
20260905233824 24 45 3.2 14.5 0.00 0.00 0.00 84 1015.0
20260905233324 24 70 3.2 11.3 0.00 0.00 0.00 83 1014.7
20260905232826 24 346 6.4 11.3 0.00 0.00 0.00 83 1015.0
20260905232323 24 45 1.6 9.7 0.00 0.00 0.00 83 1015.0
20260905231824 24 64 4.8 11.3 0.00 0.00 0.00 83 1015.0
20260905231323 25 85 9.7 11.3 0.00 0.00 0.00 83 1014.7
20260905230824 25 98 3.2 12.9 0.00 0.00 0.00 82 1014.7
20260905230333 25 99 4.8 12.9 0.00 0.00 0.00 81 1014.7
20260905225820 25 47 3.2 11.3 0.00 0.00 0.00 80 1014.3
20260905225323 25 52 8.0 11.3 0.00 0.00 0.00 80 1014.3
20260905224821 26 59 3.2 9.7 0.00 0.00 0.00 80 1014.3
20260905224321 26 37 6.4 9.7 0.00 0.00 0.00 79 1014.3
20260905223819 26 31 6.4 9.7 0.00 0.00 0.00 77 1014.3
20260905223318 26 174 3.2 9.7 0.00 0.00 0.00 76 1014.3
20260905222820 26 18 0.0 11.3 0.00 0.00 0.00 75 1014.0
20260905222317 26 334 6.4 11.3 0.00 0.00 0.00 74 1014.0
20260905221818 26 73 6.4 9.7 0.00 0.00 0.00 75 1014.3
20260905221318 26 357 3.2 8.0 0.00 0.00 0.00 76 1014.3
20260905220817 26 62 4.8 16.1 0.00 0.00 0.00 76 1014.0
20260905220314 26 332 3.2 16.1 0.00 0.00 0.00 75 1014.3
20260905215814 26 88 4.8 12.9 0.00 0.00 0.00 74 1014.0
20260905215314 26 353 1.6 6.4 0.00 0.00 0.00 75 1014.0
20260905215035 26 32 1.6 8.0 0.00 0.00 0.00 76 1014.3
20260905214755 26 343 4.8 9.7 0.00 0.00 0.00 76 1014.3
20260905213813 26 340 6.4 6.4 0.00 0.00 0.00 75 1014.3
20260905213314 26 24 1.6 9.7 0.00 0.00 0.00 76 1014.3
20260905212812 26 72 6.4 9.7 0.00 0.00 0.00 76 1014.3
20260905212310 26 299 0.0 8.0 0.00 0.00 0.00 76 1014.0
20260905211812 26 25 3.2 8.0 0.00 0.00 0.00 76 1014.3
20260905211311 26 7 4.8 8.0 0.00 0.00 0.00 77 1014.0
20260905210810 26 18 1.6 9.7 0.00 0.00 0.00 77 1014.3
20260905210534 26 352 3.2 9.7 0.00 0.00 0.00 77 1014.3
20260905205808 26 3 3.2 11.3 0.00 0.00 0.00 78 1014.3
20260905205309 26 81 3.2 11.3 0.00 0.00 0.00 77 1014.3
20260905205026 26 62 9.7 9.7 0.00 0.00 0.00 79 1014.3
20260905204309 26 247 1.6 8.0 0.00 0.00 0.00 81 1014.3
20260905203806 26 20 6.4 8.0 0.00 0.00 0.00 81 1014.3
20260905203308 26 96 4.8 11.3 0.00 0.00 0.00 81 1014.7
20260905202806 26 318 4.8 11.3 0.00 0.00 0.00 81 1014.7
20260905202306 25 14 0.0 6.4 0.00 0.00 0.00 82 1014.7
20260905201819 25 18 1.6 6.4 0.00 0.00 0.00 83 1014.3
20260905201305 25 59 6.4 9.7 0.00 0.00 0.00 84 1014.7
20260905200803 25 105 3.2 9.7 0.00 0.00 0.00 83 1014.7
20260905200520 25 12 4.8 9.7 0.00 0.00 0.00 83 1014.7
20260905195804 25 25 9.7 9.7 0.00 0.00 0.00 85 1014.7
20260905195306 25 68 3.2 9.7 0.00 0.00 0.00 85 1014.7
20260905195020 25 12 3.2 9.7 0.00 0.00 0.00 85 1014.7
20260905194301 25 56 6.4 9.7 0.00 0.00 0.00 85 1014.7
20260905193801 25 51 1.6 8.0 0.00 0.00 0.00 85 1014.7
20260905193300 25 30 1.6 12.9 0.00 0.00 0.00 85 1014.7
20260905192800 25 341 4.8 12.9 0.00 0.00 0.00 85 1015.0
20260905192300 25 10 4.8 9.7 0.00 0.00 0.00 85 1015.0
20260905191759 25 61 6.4 9.7 0.00 0.00 0.00 85 1015.0
20260905191300 25 11 4.8 9.7 0.00 0.00 0.00 85 1015.0
20260905190758 25 36 6.4 14.5 0.00 0.00 0.00 85 1015.0
20260905190259 25 22 6.4 14.5 0.00 0.00 0.00 85 1015.0
20260905185757 25 77 3.2 11.3 0.00 0.00 0.00 85 1015.0
20260905185255 25 77 4.8 12.9 0.00 0.00 0.00 85 1015.0
20260905184756 25 50 3.2 12.9 0.00 0.00 0.00 84 1015.0
20260905184514 25 349 8.0 9.7 0.00 0.00 0.00 84 1015.0
20260905183754 25 85 8.0 8.0 0.00 0.00 0.00 85 1015.0
20260905183253 25 7 3.2 16.1 0.00 0.00 0.00 85 1015.0
20260905182754 25 358 14.5 16.1 0.00 0.00 0.00 85 1015.0
20260905182254 25 354 4.8 9.7 0.00 0.00 0.00 85 1015.0
20260905181755 25 41 6.4 9.7 0.00 0.00 0.00 84 1015.0
20260905181513 25 33 6.4 12.9 0.00 0.00 0.00 84 1015.0
20260905180751 25 357 4.8 12.9 0.00 0.00 0.00 84 1015.0
20260905180307 26 4 3.2 11.3 0.00 0.00 0.00 85 1015.0
20260905175751 25 61 4.8 11.3 0.00 0.00 0.00 84 1015.0
20260905175251 26 354 3.2 11.3 0.00 0.00 0.00 83 1015.0
20260905174749 26 75 9.7 11.3 0.00 0.00 0.00 85 1014.7
20260905174518 25 98 3.2 12.9 0.00 0.00 0.00 85 1015.0
20260905173749 26 344 6.4 12.9 0.00 0.00 0.00 84 1014.7
20260905173249 26 79 1.6 8.0 0.00 0.00 0.00 84 1014.7
20260905172747 26 19 4.8 9.7 0.00 0.00 0.00 83 1014.7
20260905172246 26 65 3.2 11.3 0.00 0.00 0.00 82 1014.7
20260905171747 26 80 3.2 11.3 0.00 0.00 0.00 83 1014.7
20260905171246 26 35 3.2 11.3 0.00 0.00 0.00 84 1014.7
20260905170745 26 75 8.0 12.9 0.00 0.00 0.00 83 1014.7
20260905170246 26 187 0.0 12.9 0.00 0.00 0.00 83 1014.7
20260905165744 26 58 6.4 12.9 0.00 0.00 0.00 83 1014.7
20260905165244 26 67 6.4 12.9 0.00 0.00 0.00 83 1014.7
20260905165223 26 9 6.4 16.1 0.00 0.00 0.00 84 1015.0
20260905164508 26 45 4.8 16.1 0.00 0.00 0.00 85 1015.0
20260905164007 26 142 1.6 12.9 0.00 0.00 0.00 84 1015.0
20260905163242 26 11 4.8 9.7 0.00 0.00 0.00 87 1015.0
20260905162742 25 37 1.6 8.0 0.00 0.00 0.00 87 1014.7
20260905162240 25 88 8.0 9.7 0.00 0.00 0.00 87 1015.0
20260905161740 25 33 4.8 9.7 0.00 0.00 0.00 87 1015.0
20260905161456 25 15 1.6 8.0 0.00 0.00 0.00 88 1014.7
20260905160751 25 129 3.2 6.4 0.00 0.00 0.00 90 1015.0
20260905160253 24 56 4.8 8.0 0.00 0.00 0.00 89 1015.0
20260905155737 24 2 3.2 8.0 0.00 0.00 0.00 90 1015.0
20260905155239 24 347 6.4 9.7 0.00 0.00 0.00 90 1015.0
20260905155005 24 87 4.8 9.7 0.00 0.00 0.00 91 1015.0
20260905154237 24 62 4.8 8.0 0.00 0.00 0.00 91 1015.0
20260905153958 24 63 6.4 9.7 0.00 0.00 0.00 91 1014.7
20260905153235 23 105 3.2 11.3 0.00 0.00 0.00 91 1014.7
20260905152736 23 22 3.2 11.3 0.00 0.00 0.00 91 1014.7
20260905152456 24 359 4.8 6.4 0.00 0.00 0.00 90 1014.7
20260905151735 24 71 4.8 8.0 0.00 0.00 0.00 93 1014.3
20260905151234 23 31 3.2 14.5 0.00 0.00 0.00 92 1014.3
20260905150734 23 72 4.8 14.5 0.00 0.00 0.00 93 1014.3
20260905150502 23 81 3.2 11.3 0.00 0.00 0.00 94 1014.3
20260905145733 23 30 3.2 9.7 0.00 0.00 0.00 94 1014.3
20260905145231 23 125 3.2 9.7 0.00 0.00 0.00 95 1014.3
20260905144731 23 9 0.0 12.9 0.00 0.00 0.00 96 1014.3
20260905144230 22 70 9.7 12.9 0.00 0.00 0.00 96 1014.3
20260905143730 22 62 3.2 11.3 0.00 0.00 0.00 96 1014.3
20260905143230 22 1 3.2 11.3 0.00 0.00 0.00 97 1014.3
20260905142728 22 70 4.8 9.7 0.00 0.00 0.00 97 1014.0
20260905142229 22 79 4.8 9.7 0.00 0.00 0.00 97 1014.0
20260905141730 22 27 6.4 14.5 0.00 0.00 0.00 97 1014.3
20260905141227 22 57 4.8 14.5 0.00 0.00 0.00 97 1014.3
20260905140728 22 13 4.8 14.5 0.00 0.00 0.00 98 1014.3
20260905140225 22 75 9.7 14.5 0.00 0.00 0.00 98 1014.0
20260905135727 22 61 8.0 14.5 0.00 0.00 0.00 98 1014.0
20260905135226 22 104 4.8 14.5 0.00 0.00 0.00 98 1014.0
20260905134725 22 16 1.6 14.5 0.00 0.00 0.00 98 1014.3
20260905134225 22 84 6.4 9.7 0.00 0.00 0.00 98 1014.0
20260905133725 22 59 6.4 16.1 0.00 0.00 0.00 98 1014.0
20260905133224 22 84 6.4 16.1 0.00 0.00 0.00 98 1014.0
20260905132735 22 343 8.0 9.7 0.00 0.00 0.00 98 1014.3
20260905132224 22 65 4.8 9.7 0.00 0.00 0.00 98 1014.0
20260905131722 22 78 4.8 9.7 0.00 0.00 0.00 98 1014.3
20260905131220 22 78 4.8 8.0 0.00 0.00 0.00 98 1014.3
20260905130723 22 56 3.2 6.4 0.00 0.00 0.00 98 1014.3
20260905130221 22 64 3.2 6.4 0.00 0.00 0.00 98 1014.3
20260905125719 22 54 4.8 6.4 0.00 0.00 0.00 98 1014.0
20260905125220 22 65 3.2 9.7 0.00 0.00 0.00 98 1013.7
20260905124718 22 58 3.2 6.4 0.00 0.00 0.00 98 1013.7